Wetbulb
56.73 56.29 56.21 55.86 55.64 55.36 55.19 55.39 55.58 55.77 56.01 56.34 56.72 57.06 57.09 57.43 58.01 59.29 52.79 55.94 58.09 61.25 60.44 57.33 57.21 56.79 55.28 53.26 54.38 54.84 49.29 47.42 48.80 48.74 50.23 52.52 50.80 53.65 54.09 53.01 53.54 54.61 54.76 56.26 57.73
56.53 56.59 56.36 56.18 56.02 55.70 55.50 55.56 55.61 55.84 56.23 56.38 56.44 56.73 57.05 57.65 59.18 54.81 58.49 60.91 61.59 62.46 56.78 54.83 53.01 53.85 52.61 51.63 53.22 50.84 48.18 47.97 51.27 51.09 50.04 50.64 50.25 51.21 50.67 51.52 52.08 53.30 55.50 56.65 57.36
56.55 56.32 56.22 56.23 56.33 56.25 56.13 56.17 56.15 56.33 56.44 56.52 56.45 56.66 57.34 58.94 55.94 53.71 61.97 59.22 60.43 60.80 57.46 56.39 55.08 53.22 50.32 51.76 50.58 50.05 46.87 49.50 49.54 49.83 50.10 49.42 49.61 51.58 49.82 49.35 52.15 51.88 53.88 55.58 56.30
56.34 55.97 56.07 56.30 56.28 56.20 56.47 56.38 56.29 56.34 56.00 55.98 56.24 56.78 58.11 59.99 47.20 56.56 62.44 59.80 61.92 60.72 56.42 53.76 52.85 50.26 49.47 48.32 50.14 47.23 48.93 49.43 49.52 50.00 49.47 48.89 50.98 49.42 50.48 51.22 53.57 53.80 54.69 54.74 55.03
56.58 55.75 55.88 56.19 56.11 56.29 56.52 56.51 56.44 55.90 55.68 55.80 56.43 57.20 58.64 53.47 52.30 61.27 61.34 61.06 59.92 57.41 53.47 51.83 50.37 49.84 47.61 48.05 47.99 47.13 47.95 48.41 49.42 49.57 49.74 49.79 48.09 48.23 49.00 51.71 52.74 53.25 53.54 53.72 54.71
56.11 56.32 56.32 56.12 56.00 56.19 56.33 56.44 56.03 55.68 55.45 55.72 56.81 57.77 57.61 48.82 56.83 60.39 58.58 57.63 56.24 55.30 53.95 53.16 50.84 50.87 48.41 47.41 46.78 47.88 47.58 48.11 48.98 48.83 48.99 47.63 48.15 48.83 49.83 51.91 51.72 52.70 53.22 53.96 54.50
56.03 56.21 56.37 56.06 56.11 56.31 56.43 55.80 55.16 55.17 55.24 55.77 57.51 58.69 54.16 51.16 57.98 60.09 58.70 56.31 56.60 55.09 52.41 53.29 52.88 50.47 49.83 47.32 49.39 48.21 45.60 47.82 48.21 48.43 47.89 49.17 45.82 47.12 51.04 52.00 51.30 52.57 53.08 53.57 54.63
56.04 55.62 56.39 56.09 56.10 56.13 55.68 55.78 55.05 55.03 55.23 56.47 57.95 58.33 50.64 56.78 58.69 56.22 57.79 56.38 57.12 56.66 54.66 54.56 53.86 51.23 49.46 49.79 48.31 45.56 45.94 43.81 47.53 47.94 48.04 47.16 43.18 48.95 51.28 51.06 51.09 52.20 52.77 53.45 54.54
55.73 55.05 55.98 56.08 55.89 55.52 55.06 56.32 56.04 56.46 56.50 57.53 59.33 56.34 49.70 57.19 53.31 55.28 56.26 53.54 54.01 53.72 54.30 53.87 52.78 49.14 49.13 45.59 44.77 45.37 42.14 43.12 44.14 48.09 46.97 47.07 44.94 49.05 51.59 51.28 50.97 51.99 52.72 53.28 54.30
55.01 54.66 55.33 55.62 55.58 55.20 53.89 55.66 57.40 56.34 57.90 57.93 55.76 51.58 51.66 49.29 52.85 54.13 55.34 54.61 51.55 51.75 51.27 50.55 49.84 46.95 47.23 45.33 40.02 41.40 41.72 43.28 43.14 46.86 48.12 46.69 46.50 49.64 51.32 51.12 51.24 52.22 52.62 52.95 53.56
54.73 54.40 54.63 55.15 54.89 54.56 54.47 55.16 54.24 52.15 53.01 49.45 49.27 48.84 49.93 52.63 54.47 53.01 54.46 52.10 51.47 49.84 46.07 48.20 44.67 43.37 44.37 44.93 44.37 43.20 42.72 42.16 45.18 48.13 46.09 46.38 46.80 48.78 51.07 51.39 51.40 52.22 52.91 53.42 54.16
54.40 54.34 54.48 54.77 54.28 54.11 57.16 53.34 51.51 52.29 47.81 50.41 50.42 50.16 51.06 52.77 47.71 51.66 55.13 48.73 47.84 44.93 46.90 45.90 43.66 45.13 45.46 44.91 43.66 43.36 42.08 42.99 46.09 47.28 46.50 46.40 46.07 49.58 51.15 51.16 52.17 52.50 53.03 53.88 54.78
53.56 53.79 54.52 54.09 53.75 57.21 54.64 52.95 56.09 53.51 50.07 46.93 48.61 49.13 49.90 51.09 47.69 48.89 52.49 50.24 46.88 44.53 44.97 43.08 45.12 46.17 44.33 44.10 43.14 44.30 42.98 43.28 42.86 45.77 47.62 46.37 45.24 47.82 50.55 51.65 52.03 52.33 53.03 53.73 54.26
52.87 53.46 53.90 52.80 54.24 55.90 53.28 56.02 56.88 55.14 46.62 42.50 45.13 48.32 49.97 49.34 46.06 52.06 53.00 49.91 46.95 44.03 45.20 44.68 45.66 44.76 45.04 44.14 45.09 41.68 46.19 44.31 43.52 43.04 40.20 46.75 37.72 46.11 47.89 48.60 50.03 51.55 52.96 53.37 53.88
52.72 53.65 53.59 52.19 56.50 54.26 53.99 56.82 56.75 55.20 38.44 43.15 45.53 51.87 50.03 46.62 47.25 48.87 53.25 50.98 45.79 45.61 45.91 44.06 44.75 44.61 43.64 44.29 45.73 43.31 46.05 44.71 44.17 42.79 42.64 43.22 40.40 44.75 48.00 46.19 48.12 50.30 51.36 52.36 53.73
52.66 53.41 52.36 56.21 57.87 54.80 56.21 56.54 56.16 45.42 36.05 41.09 45.56 44.82 45.17 46.59 45.54 48.66 48.48 51.99 50.99 46.24 46.91 46.21 48.65 46.68 45.98 46.56 46.48 47.10 45.18 45.39 45.62 43.83 37.36 42.59 41.37 42.29 45.69 46.19 48.05 50.33 51.45 52.50 53.23
52.57 52.32 53.99 56.60 53.36 56.11 56.93 54.86 44.15 39.58 43.28 40.93 42.10 44.54 43.85 43.35 43.14 45.08 44.34 45.23 44.14 40.37 41.21 44.47 44.05 46.34 47.01 44.10 46.82 45.31 43.18 38.07 37.83 37.15 37.25 42.87 39.76 42.77 47.56 48.47 48.89 49.24 50.67 52.25 53.65
51.39 50.26 52.18 57.24 56.50 55.27 54.51 48.96 39.25 39.65 40.88 44.24 43.38 43.78 41.07 43.44 42.16 43.40 43.07 42.85 45.42 43.54 41.58 38.26 38.08 42.79 45.58 43.82 41.60 42.72 41.89 37.43 29.68 34.09 37.46 42.87 37.25 44.59 47.80 49.75 50.23 50.55 51.99 52.54 52.80
50.23 58.74 59.73 58.12 55.51 55.33 50.52 44.68 41.81 41.89 43.19 42.36 43.55 40.57 40.72 41.91 41.30 42.09 42.07 41.49 43.58 44.61 38.68 38.56 37.89 45.97 45.73 45.81 44.94 42.60 39.36 44.52 38.07 39.73 36.39 40.06 43.34 47.18 49.23 48.01 49.16 49.46 50.61 51.56 52.76
54.82 56.73 55.47 58.59 56.53 54.94 50.23 41.13 43.24 44.76 45.01 43.91 39.28 41.27 38.57 40.62 39.68 40.81 40.43 43.56 42.58 45.02 46.35 42.46 35.63 43.43 43.87 46.24 46.64 44.07 46.12 37.08 37.35 29.72 30.16 37.82 39.73 41.16 45.30 46.32 48.34 48.74 48.60 50.74 51.92
55.87 52.66 55.56 58.44 56.79 53.43 46.96 44.23 44.19 46.37 46.11 43.29 41.49 40.54 40.85 39.96 40.03 39.54 39.88 42.58 44.41 43.81 46.12 44.77 39.23 40.28 44.56 42.19 41.55 41.10 40.16 40.20 40.10 37.78 31.14 31.07 37.66 46.90 45.96 47.45 47.28 48.24 48.75 49.77 50.22
54.56 49.87 56.21 58.45 51.42 50.12 46.05 43.89 42.45 44.97 46.48 44.47 45.06 43.52 41.78 40.61 39.81 39.50 39.21 41.44 45.92 45.85 40.97 44.47 41.50 36.32 39.86 45.62 46.84 45.03 42.95 41.35 35.38 34.08 36.81 35.30 35.56 48.31 47.58 47.95 47.38 46.85 48.54 49.39 49.17
50.11 50.98 55.83 55.61 45.44 45.67 46.90 44.28 44.64 44.16 44.23 43.47 42.79 43.60 44.48 41.27 36.63 41.08 41.47 44.54 45.64 44.08 42.07 43.84 39.07 33.58 37.81 43.32 44.67 41.93 41.92 41.66 41.14 38.59 32.87 30.24 35.28 48.46 48.06 46.85 48.15 46.80 47.12 47.15 47.05
50.50 46.10 49.47 50.32 49.63 45.93 43.21 44.70 43.40 45.58 44.48 44.65 44.93 44.91 42.48 41.69 43.95 40.56 41.60 44.22 44.81 44.11 45.29 44.10 39.48 36.68 33.93 38.52 41.59 39.10 40.89 41.28 39.82 32.39 36.48 36.72 39.44 43.49 44.13 44.17 45.50 45.82 46.00 45.75 45.53
49.39 45.44 46.01 43.22 45.29 44.86 45.18 43.02 42.20 41.89 45.53 46.34 44.15 42.37 41.44 34.25 40.80 41.43 41.68 42.24 44.53 45.05 44.35 44.06 37.01 38.65 38.57 39.37 38.99 37.72 37.75 40.60 37.86 38.47 33.26 37.80 37.74 42.55 42.53 42.72 43.81 43.50 43.50 42.34 42.88
46.24 44.80 47.10 45.60 44.18 43.67 41.29 43.67 41.40 42.87 43.35 42.41 42.80 44.36 44.08 40.03 40.85 38.57 42.88 42.87 41.23 43.82 42.94 43.10 37.79 39.46 37.60 40.81 39.81 38.26 41.82 41.14 41.84 41.82 40.85 40.61 38.89 43.82 45.46 44.08 41.24 40.83 41.72 39.27 38.77
49.33 50.98 46.62 43.26 42.39 42.32 43.26 42.28 42.04 43.68 44.66 45.65 45.54 44.22 43.00 44.41 45.90 46.64 46.68 46.13 45.21 42.74 41.31 38.50 36.63 34.38 32.96 40.06 39.00 34.91 38.63 40.18 40.99 41.23 39.83 33.89 40.29 43.28 41.64 38.73 38.64 39.73 39.72 38.12 38.35
MSLP
1017.35 1017.10 1016.86 1016.50 1016.20 1015.97 1015.81 1015.67 1015.54 1015.38 1015.16 1014.96 1014.74 1014.48 1014.34 1014.10 1013.50 1012.76 1011.67 1012.63 1012.28 1012.33 1012.20 1011.06 1010.43 1009.73 1009.24 1008.78 1008.59 1008.10 1006.47 1004.83 1004.49 1005.11 1004.99 1006.96 1006.86 1006.58 1006.97 1006.40 1005.87 1005.76 1005.50 1005.56 1005.75
1017.56 1017.09 1016.62 1016.32 1016.08 1015.96 1015.75 1015.58 1015.47 1015.25 1015.06 1014.87 1014.72 1014.53 1014.11 1013.93 1011.87 1011.51 1012.64 1012.63 1012.47 1012.27 1010.98 1010.19 1009.51 1009.43 1008.79 1008.64 1008.52 1007.71 1006.61 1005.37 1006.47 1006.97 1006.92 1007.35 1007.50 1007.18 1007.15 1006.18 1005.84 1005.57 1005.48 1005.54 1005.69
1017.60 1017.20 1016.95 1016.52 1016.01 1015.71 1015.42 1015.20 1015.16 1015.04 1014.80 1014.65 1014.55 1014.45 1014.16 1013.69 1011.48 1011.93 1012.72 1012.79 1012.67 1012.20 1011.03 1010.41 1009.85 1009.28 1008.74 1008.64 1008.79 1008.32 1007.21 1007.48 1007.91 1008.26 1008.40 1008.07 1007.79 1007.41 1007.42 1006.35 1005.82 1005.91 1005.73 1005.82 1005.85
1017.83 1017.29 1016.77 1016.53 1016.26 1015.85 1015.50 1015.35 1015.05 1014.99 1014.86 1014.59 1014.59 1014.33 1013.86 1012.95 1011.51 1012.21 1012.91 1012.74 1012.36 1011.68 1010.68 1009.94 1009.69 1009.02 1008.63 1008.55 1009.26 1008.66 1008.81 1008.80 1008.42 1008.89 1008.68 1008.14 1007.78 1007.66 1007.26 1006.71 1006.57 1006.38 1006.16 1006.15 1005.87
1018.11 1017.54 1016.94 1016.43 1016.02 1015.54 1015.23 1014.95 1014.73 1014.80 1014.80 1014.52 1014.16 1013.96 1013.33 1011.51 1011.69 1012.28 1012.75 1012.51 1011.94 1011.08 1010.46 1010.01 1009.50 1009.18 1008.66 1009.15 1009.37 1008.98 1009.00 1009.41 1009.27 1009.12 1008.60 1008.30 1007.72 1007.33 1006.88 1006.81 1006.78 1006.44 1006.23 1006.06 1005.74
1017.88 1017.51 1017.01 1016.58 1016.14 1015.58 1015.02 1014.48 1014.36 1014.47 1014.52 1014.39 1014.13 1013.83 1012.47 1011.38 1012.21 1012.21 1012.22 1011.80 1011.23 1010.75 1010.39 1009.96 1009.81 1009.79 1009.42 1009.41 1009.41 1009.41 1009.46 1009.21 1009.02 1008.72 1008.63 1008.30 1007.47 1007.30 1006.61 1006.51 1006.69 1006.48 1006.15 1005.79 1005.59
1017.67 1017.20 1016.65 1016.15 1015.99 1015.63 1015.03 1014.62 1014.27 1014.21 1014.30 1014.12 1013.87 1013.02 1011.18 1011.90 1012.04 1011.94 1011.85 1011.53 1011.57 1011.31 1010.67 1010.79 1010.65 1010.27 1010.08 1009.59 1009.93 1009.84 1009.48 1008.68 1008.52 1008.68 1008.72 1008.60 1007.71 1006.62 1006.38 1006.24 1006.06 1005.96 1005.66 1005.58 1005.34
1017.47 1016.88 1016.46 1016.04 1015.57 1015.26 1014.78 1014.43 1014.38 1014.22 1014.15 1014.01 1013.72 1012.48 1011.45 1012.28 1012.17 1011.87 1011.70 1011.39 1011.66 1011.60 1011.39 1011.27 1011.04 1010.43 1010.18 1010.29 1009.92 1009.59 1009.25 1007.78 1007.89 1008.29 1008.41 1008.96 1006.58 1005.94 1006.35 1006.14 1005.71 1005.50 1005.26 1004.99 1004.84
1017.70 1017.00 1016.27 1015.72 1015.49 1015.28 1014.87 1014.47 1014.34 1014.35 1014.25 1014.08 1013.37 1011.49 1011.46 1012.39 1011.76 1011.73 1011.71 1011.22 1011.17 1011.22 1011.23 1011.33 1010.83 1010.19 1010.10 1009.30 1008.19 1008.63 1007.46 1007.36 1007.29 1008.24 1008.06 1007.86 1006.03 1005.80 1005.72 1005.73 1005.49 1005.25 1004.64 1004.15 1003.85
1018.11 1017.34 1016.57 1015.71 1015.25 1015.06 1014.96 1014.67 1014.42 1014.25 1013.93 1013.25 1012.63 1011.62 1012.05 1012.06 1012.09 1011.80 1011.78 1011.61 1010.96 1010.67 1010.46 1010.52 1009.90 1009.45 1008.69 1008.30 1007.58 1007.91 1007.84 1007.54 1007.17 1007.18 1007.20 1006.50 1005.19 1004.87 1004.66 1004.50 1004.28 1004.03 1003.83 1003.34 1002.92
1018.30 1017.64 1016.84 1016.11 1015.29 1014.93 1013.98 1013.50 1013.87 1012.90 1012.60 1012.70 1012.52 1011.97 1012.14 1012.17 1012.05 1011.67 1011.43 1011.10 1010.73 1010.31 1009.75 1009.80 1009.63 1008.36 1008.70 1009.19 1009.25 1009.09 1008.45 1007.69 1007.19 1007.13 1006.96 1005.95 1004.64 1004.07 1003.68 1003.31 1002.95 1002.63 1002.44 1002.35 1002.10
1018.46 1017.62 1016.94 1016.15 1015.53 1014.83 1014.30 1013.34 1014.13 1013.93 1013.09 1012.95 1012.58 1012.31 1012.56 1012.25 1011.68 1011.80 1011.67 1011.03 1010.73 1010.04 1009.94 1009.70 1008.69 1009.13 1009.71 1009.63 1009.40 1008.99 1008.26 1007.39 1007.04 1006.84 1007.02 1005.55 1003.48 1002.97 1002.30 1002.10 1001.97 1001.67 1001.46 1001.41 1001.63
1018.60 1017.69 1016.77 1015.97 1015.31 1014.61 1014.03 1014.37 1014.37 1014.09 1012.53 1013.04 1012.98 1012.71 1012.73 1012.56 1012.22 1012.27 1012.27 1011.58 1010.86 1010.33 1009.96 1009.73 1009.30 1009.95 1010.03 1009.55 1009.21 1008.68 1008.13 1007.60 1007.29 1007.27 1006.74 1005.25 1002.80 1001.03 1001.37 1001.35 1001.27 1001.18 1001.42 1001.47 1001.50
1018.57 1017.79 1016.73 1015.84 1015.54 1014.44 1013.96 1014.55 1014.32 1014.28 1012.31 1013.01 1012.57 1012.96 1012.70 1012.36 1012.34 1012.85 1012.65 1012.37 1011.02 1010.72 1010.64 1009.93 1010.32 1010.42 1010.09 1009.66 1009.54 1008.67 1008.51 1008.61 1007.95 1007.30 1005.73 1005.63 1002.66 1001.81 1001.38 1001.14 1001.04 1000.90 1000.89 1000.87 1001.28
1018.32 1017.56 1016.76 1015.85 1014.74 1013.93 1014.66 1014.39 1014.07 1014.15 1012.25 1013.25 1012.77 1013.25 1013.00 1012.73 1013.10 1012.47 1012.86 1012.19 1011.63 1011.33 1011.50 1009.74 1010.40 1010.46 1010.22 1009.89 1010.33 1009.32 1009.63 1008.97 1008.21 1007.31 1006.30 1004.97 1003.92 1000.61 1000.48 1000.59 1000.59 1000.90 1001.17 1001.22 1001.38
1018.19 1017.29 1016.67 1015.22 1014.56 1014.47 1014.50 1014.43 1014.03 1012.92 1012.18 1012.87 1013.00 1012.87 1012.50 1012.67 1013.05 1012.94 1012.85 1012.94 1012.78 1012.13 1011.67 1011.01 1011.23 1011.38 1010.87 1010.84 1010.61 1010.42 1009.53 1008.26 1007.19 1006.43 1004.97 1003.00 1003.15 1000.46 999.98 1000.78 1001.09 1001.08 1001.27 1001.55 1001.82
1017.88 1017.05 1016.49 1015.32 1014.59 1014.49 1014.40 1013.63 1012.45 1011.91 1013.33 1012.97 1012.96 1013.02 1012.94 1012.86 1012.91 1013.08 1012.88 1012.81 1012.55 1011.95 1011.14 1010.88 1010.76 1011.47 1011.69 1010.82 1010.17 1010.22 1009.47 1007.30 1005.53 1004.94 1003.31 1003.53 1003.22 1001.28 1000.86 1001.05 1001.42 1001.66 1001.90 1002.33 1002.84
1017.21 1016.65 1016.10 1014.95 1014.78 1014.68 1013.95 1012.70 1011.92 1012.97 1013.01 1013.60 1013.55 1013.29 1013.23 1013.37 1013.10 1013.22 1012.96 1012.71 1013.51 1013.29 1012.22 1011.61 1010.50 1011.46 1011.89 1011.66 1011.16 1010.56 1010.50 1008.97 1007.36 1005.14 1003.94 1003.97 1001.86 1000.13 1001.30 1001.50 1001.83 1002.25 1002.81 1003.03 1003.24
1016.79 1015.40 1014.47 1014.68 1014.84 1014.55 1013.13 1011.91 1012.67 1013.38 1013.99 1013.83 1013.44 1013.35 1013.35 1013.64 1014.02 1013.58 1013.12 1013.42 1013.74 1013.96 1013.66 1012.61 1011.76 1011.53 1011.65 1011.68 1011.57 1010.20 1010.28 1009.91 1009.23 1007.63 1005.37 1003.22 1001.78 1000.79 1000.14 1001.15 1001.48 1001.87 1002.67 1002.84 1003.17
1016.76 1015.11 1014.42 1014.65 1014.73 1013.87 1012.52 1013.26 1013.74 1014.41 1014.59 1014.45 1013.89 1014.18 1013.78 1013.84 1014.01 1013.81 1013.46 1013.84 1014.04 1014.46 1014.65 1013.80 1013.00 1011.94 1012.02 1011.90 1011.04 1011.13 1010.58 1010.59 1010.66 1008.71 1005.73 1003.05 1001.67 999.91 1000.49 1001.13 1001.56 1002.01 1002.56 1002.97 1003.29
1016.71 1014.47 1014.57 1014.52 1014.27 1012.89 1012.93 1013.95 1014.47 1014.91 1015.06 1014.80 1014.49 1014.50 1014.54 1014.65 1014.60 1014.26 1013.94 1013.91 1014.41 1014.46 1014.86 1014.56 1014.41 1012.35 1011.97 1010.87 1010.23 1010.62 1010.62 1011.02 1011.04 1010.23 1007.84 1004.81 1002.02 1001.39 1001.96 1002.00 1002.47 1003.30 1004.24 1004.57 1004.35
1016.36 1014.14 1014.81 1014.32 1013.34 1013.80 1013.97 1015.30 1016.19 1015.27 1015.30 1015.09 1015.07 1015.01 1015.13 1015.39 1015.06 1014.73 1014.25 1014.38 1014.94 1014.98 1014.86 1014.75 1014.36 1012.94 1011.46 1010.53 1010.34 1010.41 1010.29 1010.69 1011.23 1010.20 1009.40 1007.49 1003.41 1002.64 1002.60 1002.57 1003.35 1003.73 1003.81 1003.86 1004.29
1016.97 1015.74 1015.07 1014.05 1013.80 1014.54 1015.52 1015.75 1015.88 1015.72 1015.64 1015.56 1015.31 1015.52 1015.73 1015.73 1016.03 1015.06 1014.73 1014.77 1015.18 1015.33 1014.94 1015.36 1015.03 1013.71 1011.03 1010.27 1010.62 1010.31 1010.50 1011.08 1011.12 1011.34 1009.36 1008.38 1004.06 1002.97 1002.95 1003.30 1003.87 1004.16 1004.51 1004.91 1004.79
1017.67 1015.88 1015.64 1015.72 1016.50 1016.29 1016.16 1015.90 1015.89 1016.35 1016.10 1016.23 1015.94 1016.13 1016.08 1015.87 1015.77 1015.40 1014.78 1014.74 1015.32 1015.60 1015.90 1016.51 1015.82 1014.79 1012.92 1011.11 1010.81 1010.49 1010.39 1010.60 1010.87 1010.22 1008.67 1007.22 1004.39 1004.33 1004.04 1004.21 1004.74 1005.12 1005.40 1005.42 1005.24
1018.67 1018.64 1019.08 1016.85 1016.63 1017.27 1017.23 1016.93 1016.40 1016.45 1016.58 1016.48 1016.05 1016.27 1016.68 1016.90 1015.99 1014.85 1014.67 1014.75 1014.68 1015.07 1015.42 1015.68 1015.01 1014.37 1013.55 1012.62 1011.69 1010.73 1010.02 1009.60 1009.25 1008.99 1008.59 1007.01 1005.82 1004.66 1005.18 1005.46 1005.86 1006.26 1006.26 1006.15 1005.73
1020.02 1020.18 1019.43 1018.56 1018.45 1017.85 1017.69 1016.80 1016.91 1017.04 1017.35 1016.25 1016.40 1016.18 1016.74 1016.60 1016.39 1015.29 1014.95 1014.60 1014.75 1014.76 1015.07 1015.59 1014.78 1014.47 1013.20 1011.95 1010.63 1009.18 1008.19 1008.14 1007.97 1007.75 1007.35 1007.02 1006.13 1006.48 1006.38 1007.01 1007.31 1007.45 1006.89 1006.69 1006.26
1021.91 1021.75 1020.86 1019.33 1018.60 1018.09 1017.42 1017.47 1017.46 1017.77 1017.07 1016.96 1016.84 1016.73 1016.42 1016.10 1015.90 1015.43 1015.12 1014.59 1014.65 1014.66 1015.08 1015.93 1015.70 1015.00 1012.50 1010.90 1009.99 1008.77 1007.98 1007.65 1007.97 1008.35 1008.64 1008.13 1006.99 1007.42 1007.65 1008.30 1008.56 1007.82 1007.48 1007.01 1006.31
Wind_Speed
19 17 13 11 10 9 8 7 7 7 8 9 10 10 10 11 9 8 11 6 5 7 7 2 5 3 5 4 1 2 7 11 13 9 2 3 6 2 6 13 6 8 10 7 7
20 18 17 14 11 8 7 6 6 6 7 8 8 9 11 10 4 14 5 3 5 8 3 2 5 4 4 3 3 8 8 8 7 4 7 6 8 11 10 12 11 10 8 7 8
20 19 16 14 14 12 11 9 8 7 7 7 8 8 9 9 6 8 4 2 4 9 3 1 2 2 2 2 1 2 8 4 5 3 6 11 11 8 12 16 12 12 11 12 13
19 19 18 16 13 12 10 8 7 6 5 7 6 7 9 10 3 6 1 3 6 7 3 3 4 3 3 4 1 8 1 5 2 8 12 14 14 14 15 17 15 15 16 14 15
17 18 18 16 16 15 13 12 10 6 5 6 7 7 7 8 10 5 1 3 6 3 6 2 4 1 2 0 3 8 2 5 8 12 14 15 17 19 18 14 17 15 14 15 14
20 18 17 13 12 13 14 13 10 6 5 5 6 7 8 14 3 2 3 4 5 5 6 8 6 6 2 2 6 2 8 11 12 11 10 13 15 12 11 9 9 10 13 13 13
24 21 19 16 11 9 10 8 7 5 4 5 6 7 12 9 3 0 3 3 4 5 2 4 4 4 4 3 1 6 12 10 8 5 10 7 18 22 15 14 15 14 15 15 16
27 25 20 17 15 12 7 3 4 3 3 4 7 6 10 3 1 1 1 4 2 2 3 1 4 3 4 1 10 10 7 8 11 9 7 5 16 14 6 10 18 18 18 18 19
26 26 24 20 16 13 4 2 4 6 5 6 8 5 8 5 5 6 3 2 2 3 3 4 6 4 7 8 10 9 8 11 8 11 8 13 19 14 12 17 20 22 21 20 21
26 26 24 22 18 13 5 5 7 6 6 4 3 7 10 5 5 4 3 3 3 5 9 7 5 9 10 7 8 11 14 12 14 7 16 20 24 19 15 17 21 21 21 22 23
27 25 24 21 20 13 9 6 7 6 13 13 8 7 7 9 3 10 9 6 4 7 9 5 10 7 10 7 9 12 15 17 16 13 15 21 26 23 20 19 20 21 21 22 23
26 26 24 20 17 13 7 4 6 7 7 6 8 7 4 10 3 11 14 5 7 10 7 9 9 4 7 10 12 14 17 17 15 10 16 21 31 25 20 13 15 17 19 19 17
26 27 25 21 15 5 7 7 6 2 3 5 5 7 9 7 4 10 12 9 8 9 8 9 11 9 9 12 12 14 16 17 20 18 17 15 22 4 13 9 10 8 9 12 13
28 27 24 21 3 3 3 7 6 3 6 4 2 5 6 2 3 4 10 6 4 7 8 7 3 6 11 14 13 18 10 12 17 14 12 12 15 17 7 8 7 9 10 11 11
30 27 22 12 4 3 7 6 5 5 5 4 3 2 2 8 8 5 9 4 6 8 6 5 9 12 14 10 9 11 10 15 17 19 20 17 12 6 7 6 6 7 7 3 2
29 26 20 4 2 5 5 3 5 7 2 3 1 5 5 8 2 7 5 1 3 7 5 10 7 5 6 7 7 12 15 19 21 14 12 14 12 10 4 8 10 13 10 12 14
28 23 9 4 6 9 3 5 6 5 3 3 4 6 5 8 1 9 8 6 7 7 6 11 4 1 6 10 10 6 13 8 5 9 10 6 11 15 17 9 13 11 12 9 9
30 17 4 4 6 4 5 6 5 4 3 2 4 5 4 10 5 11 8 4 4 6 11 7 2 2 2 11 9 16 8 7 8 9 15 21 11 3 3 10 10 8 9 7 5
28 2 0 10 5 4 6 3 5 2 3 6 5 3 1 2 6 7 7 4 4 4 7 7 5 14 10 5 5 4 8 9 13 19 17 11 15 16 16 7 10 7 6 8 8
6 3 8 14 4 5 3 3 2 1 4 2 3 2 6 8 7 10 4 3 1 2 3 5 10 7 3 11 14 13 7 5 4 6 13 12 19 11 11 14 14 13 14 14 15
4 4 9 13 5 1 2 4 2 4 2 3 2 5 4 7 7 7 3 2 2 4 5 10 5 5 17 6 10 6 9 8 7 9 8 13 7 18 22 16 15 14 20 22 23
4 1 10 9 1 2 4 3 1 1 1 2 4 5 5 4 8 5 6 2 1 7 11 9 7 14 22 21 14 16 17 14 7 10 8 10 19 8 1 11 16 19 18 21 23
5 4 6 9 3 4 2 2 2 2 2 2 3 3 2 5 3 8 8 2 5 11 5 7 4 9 9 6 3 7 6 12 15 9 17 14 15 12 25 26 24 26 24 23 24
5 2 4 6 4 4 4 1 2 1 5 3 6 5 5 7 9 9 10 6 1 9 13 9 10 15 11 17 18 23 23 21 17 7 17 19 32 29 26 26 24 24 24 26 28
5 5 4 5 4 6 3 2 4 2 3 4 4 4 2 3 13 12 5 6 13 11 7 7 9 15 20 23 24 26 27 27 22 22 18 24 28 29 26 24 25 26 26 26 25
5 5 4 3 5 6 2 2 6 1 4 5 9 5 8 11 12 16 19 15 11 9 7 3 7 12 19 21 23 26 26 23 24 22 23 23 28 24 22 22 25 27 27 25 25
4 1 5 1 3 5 3 4 5 6 8 8 11 13 16 16 13 15 18 21 19 17 14 5 3 3 11 15 20 19 7 5 11 12 14 16 26 24 20 23 25 27 26 23 23
Wind_Direction
3 1 4 359 353 346 339 330 324 317 312 309 311 320 323 322 293 209 53 35 351 326 283 233 182 157 193 152 169 257 247 247 247 250 215 134 297 247 316 280 285 294 291 328 326
2 360 357 355 353 349 336 327 319 312 308 307 312 319 319 323 238 65 54 336 312 317 253 306 112 185 151 145 150 245 248 276 23 349 287 303 288 310 295 282 275 271 269 293 314
359 357 357 353 347 344 339 334 329 322 316 308 310 308 302 296 191 55 99 296 297 290 27 35 143 236 160 201 123 147 274 84 190 316 298 293 281 282 283 276 276 297 295 304 308
3 355 351 349 344 336 327 318 310 300 298 298 294 293 293 232 84 66 146 290 311 300 249 134 206 193 203 191 153 252 232 259 284 289 287 280 294 271 265 275 289 283 286 295 288
7 358 347 343 339 332 325 318 307 293 280 282 293 295 257 118 88 90 242 226 269 267 35 38 61 259 206 122 250 253 166 244 267 275 278 288 272 276 277 273 270 280 282 273 275
3 358 354 348 339 327 320 312 301 295 276 281 294 293 230 94 55 171 226 245 24 5 33 24 28 4 79 314 284 65 280 278 272 280 271 270 279 274 267 264 252 262 268 267 275
360 356 355 351 350 340 323 304 290 285 273 293 298 273 79 80 12 59 267 6 5 359 35 37 359 297 350 248 6 294 280 269 243 208 288 321 268 251 257 264 269 273 264 250 266
356 354 354 352 351 357 348 336 144 189 249 287 302 260 80 81 22 275 250 197 201 225 263 313 258 289 284 16 231 259 245 253 144 255 272 238 283 278 304 260 274 278 278 268 264
353 352 349 348 353 3 35 92 148 168 208 236 239 273 85 147 37 23 352 323 293 182 227 240 244 306 213 261 260 196 303 305 302 197 274 266 291 275 261 259 269 274 270 267 265
354 351 347 343 347 347 340 216 175 193 208 244 242 205 57 26 34 331 80 274 277 264 214 217 262 261 239 294 310 317 304 302 297 307 296 292 284 286 290 271 265 263 262 262 262
351 350 345 340 335 335 303 227 200 153 48 44 43 63 54 2 287 21 355 299 277 263 277 342 291 291 339 308 301 292 288 293 296 316 297 298 292 294 291 277 268 261 254 254 259
348 346 342 334 326 314 277 58 39 354 102 57 60 54 28 346 295 24 349 320 306 294 310 254 264 350 320 284 280 282 287 286 304 305 318 302 293 296 278 269 264 268 268 262 261
346 344 339 331 320 290 42 53 344 240 243 75 46 22 1 326 39 5 354 324 282 280 281 285 305 340 284 289 285 278 289 297 303 311 279 295 289 167 340 283 290 284 288 272 259
343 341 335 328 292 2 82 334 282 228 233 62 35 65 352 80 188 12 3 323 260 313 316 278 51 296 290 288 294 290 332 310 297 303 302 335 293 297 317 310 273 277 284 266 246
339 337 334 334 339 10 343 330 163 216 239 67 63 349 65 29 322 63 5 315 312 319 283 45 313 315 294 313 313 293 327 296 290 282 289 274 252 286 271 302 349 331 347 331 232
335 331 328 222 225 25 324 184 220 227 123 121 346 344 342 19 39 342 344 317 308 301 260 281 318 287 336 304 280 313 287 285 264 265 255 256 232 278 289 345 311 313 319 327 337
332 325 308 295 342 333 289 218 225 284 142 59 344 338 337 350 352 359 348 42 24 321 355 317 192 205 303 315 304 264 310 301 265 201 251 139 266 257 289 308 318 318 318 326 331
328 317 153 8 331 276 219 222 255 50 28 57 320 322 341 4 6 347 346 9 90 351 308 343 186 28 24 307 294 300 292 284 294 301 311 316 261 74 277 303 292 339 333 346 338
314 162 136 358 338 241 239 259 30 54 8 333 303 292 51 6 333 325 358 327 7 357 354 321 258 320 310 320 256 49 243 4 291 271 262 244 245 238 249 240 269 286 317 293 310
316 271 43 347 327 244 252 71 109 74 334 293 319 332 325 345 326 341 320 100 326 298 349 333 298 300 318 285 251 243 325 267 228 278 299 294 296 296 359 325 310 307 301 310 320
269 228 24 347 253 243 53 71 134 89 329 280 310 290 299 320 322 321 289 265 244 337 298 294 272 272 295 251 295 233 234 230 303 279 285 300 287 346 317 326 340 331 338 322 306
301 227 7 328 260 17 58 11 352 259 226 278 277 281 285 317 296 287 261 268 32 318 304 310 289 287 289 287 275 269 265 262 250 265 250 283 282 293 219 335 310 307 298 310 319
359 345 20 312 26 52 80 173 263 261 302 272 259 250 283 283 283 271 276 321 267 292 306 18 254 299 299 152 152 240 281 274 272 275 254 269 269 306 319 321 327 323 323 314 307
309 334 68 59 54 351 356 163 267 217 276 276 294 278 269 269 241 266 269 296 276 294 296 301 233 242 262 289 309 294 288 283 261 243 280 269 290 296 310 320 325 322 319 317 312
356 56 11 354 60 342 299 310 275 285 264 259 209 247 304 274 313 263 270 277 279 302 245 239 255 252 256 268 276 275 276 274 265 266 260 285 285 299 322 324 325 321 317 311 309
356 348 337 305 302 300 102 174 289 256 273 264 257 246 289 268 230 279 291 293 282 263 247 266 264 289 276 281 271 273 276 275 273 277 284 295 291 304 321 319 320 316 311 311 300
18 115 291 96 304 284 16 324 306 309 276 265 288 288 289 298 307 292 286 279 268 262 266 267 252 257 280 297 308 283 295 277 269 284 282 283 293 309 312 316 310 307 305 298 294